Погода в Боровичи

Поиск расширенной информации на нашем сайте:

Полезная информация:

Новости сайта



02.01.2020
Опубликован Долгосрочный прогноз погоды по городам России и ближнего зарубежья на январь 2020 года.
Карты: Прогноз на январь и февраль 2020 года, Сравнение прогнозируемой аномалии приземной температуры воздуха на январь 2020 года по разным моделям.




Погода в Боровичи - сегодня

Время (UTC), дата Ветер
(°,м/с) 
Видим.   Явления Облачность Т
(°С)
Тd
(°С)
f(%) Тe
(°С)
Pmin
(гПа)
dP
(гПа)
Po
(мм)
O2
(г/м3)
Тmin Tmax R s Состояние
почвы
12 29.11.20 100 (В) 20000 м  {ливн. осадки}  10/10 300 м 
[Sc]
-0.8 -2 92 -3  1029.2  -1  763  309           
15 29.11.20 100 (В) 20000 м    10/10 210 м 
[St]
-0.7 -1.3 96 -3  1028.9  -0.3  763  308      0.0     
18 29.11.20 100 (В) 10 км  слаб. ливневой снег  10/10 180 м кучево-дожд. 
[Cb calv]
-0.1 -0.8 95 -2  1027.3  -1.5  762  307    +0  0.2     
21 29.11.20 110 (В) 10 км  слаб. ливневой снег  10/10 210 м кучево-дожд. 
[Cb calv]
+0.9 +0.3 96 -1  1026.8  -0.5  762  306           
00 30.11.20 110 (В) 20000 м  в посл. час ливневой дождь  10/10 180 м кучево-дожд. 
[Cb calv]
+1.2 +0.8 97 1025.9  -0.9  761  305           
03 30.11.20 120 (ЮВ) 20000 м    10/10 210 м 
[St]
+2 +1.4 96 +1  1025.4  -0.4  761  304  -0.7    0.8     
06 30.11.20 130 (ЮВ) 10 км  слаб. ливневой дождь  10/10 240 м кучево-дожд. 
[Cb calv]
+2 +1.6 97 +1  1025.3  -0.1  761  304  +0       
09 30.11.20 130 (ЮВ) 10 км  слаб. ливневой дождь  10/10 240 м кучево-дожд. 
[Cb calv]
+2.2 +1.9 98 +2  1024.5  -0.8  760  303           
12 30.11.20 140 (ЮВ) 10 км  слаб. ливневой дождь  10/10 240 м кучево-дожд. 
[Cb calv]
+1.9 +1.2 95 +1  1023.4  -1.1  759  304           
15 30.11.20 160 (Ю) 10 км  слаб. ливневой дождь  10/10 330 м кучево-дожд. 
[Cb calv]
+1 +0.7 98 1023  -0.4  759  305         
18 30.11.20 200 (Ю) 20000 м  в посл. час ливневой снег  9/9 1260 м кучево-дожд. 
[Cb calv]
+0.2 -1 92 -1  1024  0.9  760  306    +2.3     
21 30.11.20 160 (Ю) 20000 м    6/6 600 м 
[Sc]
-0.7 -2 91 -3  1024.6  0.6  760  307           
00 01.12.20 150 (ЮВ) 20000 м    10/10 1080 м 
[Sc]
-0.6 -2.8 85 -1  1024.4  -0.2  760  307           
03 01.12.20 180 (Ю) 20000 м    10/10 1320 м 
[Sc]
-0.5 -2.4 87 -2  1024.7  0.3  760  307  -1.4    0.3     
06 01.12.20 170 (Ю) 20000 м    9/9 700 м 
[Sc]
-0.3 -1.9 89 -2  1026  1.3  761  307  -1.4      <0.5  равномерный
сухой снег
100% 
09 01.12.20 180 (Ю) 20000 м    9/9 930 м 
[Sc]
+0.3 -1.9 85 1027.3  1.3  762  307           
12 01.12.20 210 (ЮЗ) 20000 м    10/10 540 м 
[Sc]
+0.4 -1.5 87 +1  1028.6  1.3  763  307           
15 01.12.20 220 (ЮЗ) 20000 м    10/10 570 м 
[Sc]
+0.2 -2.1 85 +1  1030.6  1.9  764  308           
21 01.12.20 230 (ЮЗ) 20000 м    10/10 540 м 
[Sc]
-0.2 -1.9 88 1032.8  1.1  766  309           
00 02.12.20 190 (Ю) 20000 м    10/10 420 м 
[Sc]
-0.7 -2.7 86 -2  1033.5  0.7  767  310           
03 02.12.20 190 (Ю) 20000 м    10/10 420 м 
[Sc]
-0.8 -2.2 90 1033.8  0.3  767  310  -0.8         
06 02.12.20 200 (Ю) 20000 м  в посл. час ливневой снег  10/10 420 м 
[Sc]
-0.8 -1.8 93 1034.5  0.6  767  310  -1    0.0  <0.5  равномерный
сухой снег
100% 
09 02.12.20 190 (Ю) 20000 м    10/10 450 м 
[Sc]
-0.5 -2.1 89 -1  1034.8  0.4  768  310           
12 02.12.20 190 (Ю) 20000 м    10/10 420 м 
[Sc]
-0.5 -2.6 86 1034.5  -0.3  767  310           
15 02.12.20 150 (ЮВ) 20000 м    10/10 400 м 
[Sc]
-1.7 -3.3 89 -4  1034.4  -0.2  767  311      0.0     
Время (UTC), дата Ветер
(°,м/с) 
Видим.   Явления Облачность Т
(°С)
Тd
(°С)
f(%) Тe
(°С)
Pmin
(гПа)
dP
(гПа)
Po
(мм)
O2
(г/м3)
Тmin Tmax R s Состояние
почвы

Для получения пояснительной информации подведите курсор к названию столбца.

ПОГОДА в Боровичи - архив

Всё, что Вы хотите узнать о погоде в Боровичи - удобно и подробно!

Выберите нужную дату (начиная с 1 января 2019* года) и нажмите кнопку "Найти".
Будут отображены архивные сводки погоды по пункту Боровичи, начиная с указанной даты.


Отображать данные в формате CSV (для использования в таблицах Excel)


Внимание! Наш архив погоды предназначен исключительно для личного некоммерческого использования в познавательных целях. Если Вам необходимы официальные справки о состоянии погоды (для производственных, юридических, коммерческих и т.п. целей), обращайтесь в органы Росгидромета.

*Примечание: данная дата относится к архиву по метеостанциям СССР (Россия, СНГ, Балтия).
Архив по метеостанциям Зарубежной Европы и Азии (кроме Китая) хранится 10 дней, по другим регионам земного шара (Китай, Африка, Америка, Австралия, Океания) - 1 день.

Боровичи - район местоположения метеостанции


Название, широта, долгота, высота метеостанции:
Боровичи 58.4°ш. 33.9°д. 89 м над ур. моря [Российская Федерация]

Дополнительная информация

В oтличие oт бoльшинства пoгoдных сайтoв мы публикуем пoдрoбную метеoинфoрмацию в детальнoм прoфессиoнальнoм фoрмате.

Характеристики температуры и влажнoсти вoздуха измеряются на высoте 2 м в тени вдали oт зданий и деревьев.
Скoрoсть ветра измеряется на высoте 10 м (на урoвне рoста челoвека скoрoсть ветра ниже в 1.5-2 раза). Если метеoстанция нахoдится в гoрoде или в лесу, тo скoрoсть ветра занижена на 2-4 м/с пo сравнению с oткрытым местoм. Скoрoсть ветра над акватoриями крупных рек и oзёр, а также на вершинах хoлмoв на 2-5 м/с выше, чем в oбычных услoвиях.
Атмoсфернoе давление в разных тoчках местнoсти мoжет значительнo oтличаться oт давления на метеoстанции, в зависимoсти oт услoвий рельефа (при пoдъёме на 10 м давление пoнижается примернo на 1 мм рт.ст.).